Dewpoint
68 73 73 73 72 72 74 72 75 75 75 75 75 75 75 75 75 75 75 75 75 75 75 75 75 74 74 74 74 74 73 73 73 73 73 72 72 72 72 72 70 69 68 68 67 70 71 69 71 72 72 72 71 71 71 70 70 69 69 69 69 69 69 68 68 67 65 64 63 64 64 64 65 64 64 63 63 63 64 64 64 63 63 62 63
68 73 72 72 70 72 73 73 73 75 75 75 75 75 75 75 75 75 75 75 75 75 75 74 74 74 74 74 74 74 73 73 73 73 72 72 71 71 72 71 70 69 68 69 68 67 70 70 71 71 72 71 71 70 70 70 70 70 69 69 69 69 69 69 68 67 67 66 65 64 63 62 62 63 63 64 64 64 63 63 64 63 62 64 63
74 73 72 72 70 71 73 73 72 75 75 74 75 75 75 75 75 75 75 75 75 74 74 74 74 74 74 74 74 73 73 73 72 72 72 72 71 71 71 70 70 69 68 67 67 67 68 69 70 70 71 71 70 70 70 70 70 70 70 70 69 69 69 68 67 66 65 64 64 64 65 65 64 64 64 64 64 63 64 65 64 64 62 63 64
71 71 72 73 70 70 71 73 73 74 75 74 74 75 75 75 75 75 75 74 74 74 74 74 74 74 74 73 73 73 73 73 72 72 72 72 71 70 70 70 68 68 68 68 68 66 69 69 69 69 69 70 70 70 69 70 70 70 70 70 70 69 69 68 67 67 65 64 64 63 63 61 62 63 64 64 64 63 64 64 64 64 63 63 63
71 72 71 71 70 69 71 73 73 73 75 74 74 75 75 75 75 75 74 74 74 74 74 74 74 74 74 73 73 73 73 73 73 73 72 72 71 69 70 70 69 69 69 69 68 67 69 69 69 68 68 69 69 69 69 69 71 70 70 70 70 69 68 67 66 65 65 64 65 65 64 63 63 64 64 64 65 64 64 64 63 63 63 63 62
71 72 71 70 69 69 70 73 72 73 74 74 75 75 75 75 75 75 74 74 74 74 74 74 74 74 74 73 73 72 72 73 73 72 72 72 71 71 70 70 69 68 68 68 69 69 68 68 68 67 67 68 69 69 69 69 70 70 69 69 69 68 67 67 67 66 66 66 65 64 63 62 61 61 64 64 65 65 65 65 64 64 63 62 63
69 71 70 70 70 70 71 72 73 73 73 75 75 75 75 75 75 74 74 74 74 74 74 74 74 74 73 72 72 72 71 71 71 70 72 72 71 70 70 69 69 68 68 68 68 67 68 67 67 67 67 68 70 70 69 69 70 69 69 69 69 69 68 67 67 67 66 64 62 62 62 62 63 62 64 64 64 62 61 62 63 63 62 62 62
72 71 72 71 70 70 69 71 72 73 72 74 75 75 75 75 75 74 74 74 74 74 74 74 73 73 72 71 71 71 71 71 70 70 72 72 71 71 70 69 69 68 68 68 68 67 67 67 68 67 67 69 70 70 69 69 69 69 69 69 69 68 67 67 67 66 65 62 63 63 63 63 63 60 62 64 64 63 63 63 63 63 62 62 62
71 71 71 71 70 70 69 70 72 73 72 71 74 75 74 75 75 74 74 74 74 73 73 73 73 72 72 71 69 70 70 70 69 70 72 72 71 71 71 70 70 69 69 69 69 69 68 68 67 67 67 68 69 70 69 69 69 69 69 68 68 67 67 67 67 66 64 63 63 62 61 61 62 62 62 63 63 63 63 63 63 63 63 62 62
71 70 70 70 69 70 69 69 71 72 73 73 73 74 75 74 74 74 74 73 73 73 73 73 72 72 72 71 71 71 70 71 72 71 72 72 72 71 71 71 70 70 70 70 69 69 68 68 68 67 67 66 69 68 68 69 69 68 68 68 68 68 67 66 66 65 63 63 63 63 65 65 63 62 62 65 62 61 62 63 62 62 62 63 63
70 70 69 70 69 69 68 69 69 69 71 73 73 73 73 74 74 73 74 73 73 73 73 73 72 72 72 72 71 71 72 72 72 72 72 72 71 71 71 71 70 70 70 69 68 68 68 68 68 68 67 68 69 68 68 68 68 69 69 69 69 68 67 66 65 63 64 65 66 66 65 65 63 62 62 64 62 62 62 63 62 61 62 62 62
69 69 69 69 70 67 67 67 67 68 69 71 71 72 72 72 73 72 69 74 73 73 73 73 72 72 71 71 71 71 71 71 71 71 71 72 72 71 71 71 71 70 69 68 68 68 68 67 67 67 67 68 69 67 67 68 69 69 69 68 68 67 67 66 64 64 64 65 65 65 64 62 62 60 62 61 61 62 63 62 60 61 62 62 62
68 69 69 67 68 66 67 67 65 65 67 69 71 71 71 71 72 70 70 73 73 73 73 73 72 72 71 71 71 71 71 72 72 71 72 72 72 71 71 71 71 70 69 68 68 68 67 67 67 66 67 68 68 66 65 66 67 69 68 68 67 67 67 67 64 64 64 64 65 65 64 64 63 61 61 61 62 62 62 61 61 62 62 61 61
69 69 70 67 67 68 66 66 64 64 66 68 71 72 71 71 72 71 71 73 73 73 73 72 72 72 72 72 72 72 72 72 72 71 71 72 72 71 71 71 71 70 69 69 68 68 68 67 67 66 67 68 67 66 65 67 68 69 68 67 67 68 67 66 65 64 64 64 65 64 65 65 64 65 63 62 61 62 61 61 62 61 60 61 61
68 69 69 68 67 67 69 67 65 67 67 68 68 70 71 71 71 71 71 73 73 73 73 73 72 72 72 73 72 72 72 72 72 72 72 72 72 71 71 71 71 71 70 70 69 68 67 67 67 67 68 68 67 66 66 67 67 67 67 67 68 68 66 64 63 64 64 64 65 64 64 65 65 64 61 61 62 61 62 63 60 61 62 62 61
67 69 70 69 69 67 68 65 63 63 66 66 62 66 70 71 71 71 72 73 73 73 73 73 73 72 72 72 72 72 72 72 72 72 72 72 72 71 71 71 71 71 71 71 70 69 68 68 68 68 68 68 67 67 66 67 68 67 67 67 68 67 66 65 63 63 64 64 64 64 64 65 66 63 62 61 61 61 61 61 61 62 61 61 61
57 67 67 68 69 69 66 62 64 64 64 66 66 67 67 70 71 71 72 72 73 73 73 73 72 72 72 72 73 73 73 72 70 69 72 71 71 70 69 70 71 71 71 70 69 69 68 69 69 69 69 68 67 68 67 67 68 67 67 67 68 67 66 65 63 63 63 64 64 64 65 64 63 63 62 61 61 60 61 61 61 61 61 61 61
51 53 62 67 68 69 69 68 67 67 65 66 66 66 66 69 71 71 72 72 72 72 73 72 72 72 71 72 73 73 72 71 70 69 68 69 70 69 67 69 70 71 71 70 68 68 69 69 69 69 68 69 68 66 66 67 67 67 67 67 67 67 66 65 63 63 64 65 64 65 65 66 65 62 62 61 61 61 61 61 61 61 61 60 60
50 50 50 52 60 67 68 68 69 68 66 65 64 65 67 67 71 71 72 72 72 72 72 72 73 73 72 71 72 72 72 71 70 69 68 69 68 69 69 70 70 71 70 71 68 68 70 69 68 68 67 67 67 66 67 66 67 67 67 67 67 67 66 64 63 63 65 64 64 64 64 66 65 63 61 62 61 60 60 60 61 61 59 60 60
50 51 50 50 51 57 67 68 68 69 68 69 69 68 67 67 70 71 71 72 72 72 72 72 73 72 71 71 71 71 71 71 71 70 69 69 67 68 69 70 71 71 70 71 70 70 70 69 69 68 67 66 66 66 65 66 67 67 67 67 67 67 64 63 63 63 64 64 65 64 66 66 64 61 62 62 61 60 60 60 61 60 60 60 61
50 49 51 50 50 51 57 66 67 66 65 66 68 68 68 69 69 69 69 70 71 72 72 72 72 72 71 71 70 70 69 69 71 70 70 68 66 68 68 68 71 70 71 71 70 70 69 69 69 67 67 67 66 66 65 66 67 67 67 67 67 63 63 63 64 64 64 65 65 64 66 66 63 62 62 61 61 61 60 60 61 61 60 61 60
48 49 50 50 49 49 51 56 64 66 67 68 67 68 68 68 67 68 69 68 72 72 71 71 71 71 71 70 69 69 69 69 68 71 70 69 68 68 67 68 70 70 71 71 70 70 70 69 68 67 66 67 64 60 61 65 66 67 67 67 64 62 63 63 64 64 64 64 65 65 66 65 63 62 62 61 61 61 61 61 61 60 60 60 60
48 48 48 50 50 49 49 52 55 64 67 67 65 67 68 67 67 67 68 68 71 72 71 71 70 70 71 69 69 69 69 69 67 68 70 70 68 68 68 68 69 71 70 70 70 70 70 69 68 67 67 64 59 58 57 57 63 67 67 64 62 62 63 63 64 64 64 64 64 66 66 66 63 62 62 61 61 61 61 61 61 60 60 60 59
48 48 50 50 50 49 49 51 53 57 64 67 67 67 67 67 67 67 67 67 69 71 71 70 70 70 71 70 69 69 69 69 69 70 70 70 69 68 69 68 70 70 70 70 69 69 69 68 67 67 64 61 58 57 56 56 59 60 61 62 62 62 63 63 64 64 64 64 62 66 67 66 64 62 61 61 61 61 61 61 61 60 60 60 60
48 51 49 49 49 49 49 49 51 53 57 64 65 67 67 67 66 67 66 66 67 68 71 71 70 71 71 70 71 70 70 70 69 69 69 68 67 67 68 69 69 69 69 67 67 67 66 65 65 62 59 59 58 57 56 56 58 59 60 61 62 62 63 64 64 63 63 64 63 66 67 66 64 63 62 61 61 61 61 61 61 60 60 60 60
50 45 46 48 50 49 48 50 52 52 54 57 61 65 68 68 67 67 67 67 67 67 68 69 71 70 71 71 71 71 70 70 68 68 68 67 68 68 67 68 67 68 68 66 66 65 64 64 63 61 59 59 58 57 58 56 57 59 59 61 62 62 63 63 63 63 64 63 64 66 67 67 65 62 62 61 61 61 61 61 61 60 60 60 61
46 45 47 47 52 49 48 50 51 51 52 53 57 61 65 68 68 67 67 67 67 67 67 67 71 71 70 71 70 70 70 69 68 68 68 67 68 68 68 68 67 67 67 67 66 65 64 63 62 60 58 58 57 57 57 55 56 58 59 61 61 62 62 62 63 63 63 63 64 66 66 67 66 62 62 61 61 61 61 61 61 61 60 60 60
44 45 46 47 50 49 49 50 52 51 51 52 53 57 61 64 67 69 67 66 67 66 66 66 69 71 70 70 70 70 70 70 69 68 69 69 68 68 69 68 68 67 67 67 66 65 64 62 61 59 59 58 57 57 57 55 56 57 59 61 61 61 61 62 62 62 62 63 64 66 67 67 66 65 61 61 61 61 61 61 61 60 60 59 60
44 45 46 47 48 53 51 50 51 50 51 52 52 54 57 59 62 64 65 66 67 66 66 66 66 67 70 70 70 70 70 69 69 69 69 68 69 69 69 68 68 67 66 66 66 65 64 62 61 60 58 57 57 57 57 56 56 57 59 61 61 61 61 61 62 62 62 62 63 65 66 67 66 66 62 61 62 61 61 61 61 60 59 60 60
44 45 47 47 49 50 50 50 51 51 51 52 52 53 55 57 58 60 62 64 66 66 66 66 67 67 68 69 70 69 69 69 69 68 69 68 69 69 69 68 67 67 66 65 65 65 64 63 61 60 59 58 57 58 58 56 56 58 59 61 61 61 61 61 61 61 62 62 62 64 66 66 65 65 65 63 62 62 62 62 61 61 60 60 59
49 46 47 48 53 50 49 51 51 54 51 52 53 52 54 56 57 58 58 60 62 65 66 66 66 66 66 67 69 69 68 69 68 68 68 69 69 68 68 68 67 67 66 66 65 65 64 63 61 60 59 58 57 58 56 55 56 58 60 60 61 61 61 61 61 61 62 62 62 63 65 66 65 64 65 65 64 62 61 61 62 62 60 59 59
45 45 47 49 50 49 49 51 50 52 52 51 53 52 52 54 56 57 57 58 60 61 63 65 65 66 67 66 67 69 68 69 68 68 67 68 68 67 68 68 67 66 66 65 64 64 63 62 60 60 60 60 58 57 56 55 56 57 59 60 60 60 60 61 61 61 61 61 61 62 64 65 65 64 64 65 65 65 62 62 62 62 61 61 58
45 46 47 52 48 48 49 49 50 50 50 50 50 51 52 53 54 55 56 57 59 59 61 63 64 65 66 66 66 67 68 68 69 68 67 68 67 67 67 67 67 66 66 65 64 63 62 61 60 60 60 59 57 56 56 56 56 57 59 60 60 60 60 60 61 61 61 61 61 62 63 63 64 65 64 65 65 65 65 62 62 62 61 61 58
45 47 49 48 51 52 53 51 51 51 52 51 52 50 51 51 54 53 55 56 57 59 59 60 62 63 65 65 65 66 66 67 67 67 67 67 66 66 66 67 67 66 66 64 62 62 61 60 60 60 61 60 58 56 56 56 56 56 58 60 60 60 60 60 60 60 61 61 61 61 62 62 63 63 63 65 65 64 64 64 62 61 61 60 60
49 47 48 47 54 49 53 51 52 48 49 49 49 51 51 50 51 52 53 54 56 57 59 59 61 62 64 65 66 66 66 66 67 67 68 67 66 66 67 67 66 66 65 64 62 62 61 60 59 59 59 60 58 57 55 56 56 56 58 60 60 59 60 60 60 60 60 60 60 61 61 61 62 62 62 62 65 64 63 63 62 61 60 59 60
48 47 47 49 47 48 51 49 48 48 48 51 49 49 49 50 50 54 52 52 54 55 58 58 59 61 61 61 64 65 65 66 66 66 67 67 67 66 66 66 66 66 65 63 62 61 60 59 59 59 58 59 59 57 56 56 56 56 57 60 60 60 60 60 60 59 60 60 60 60 60 60 61 61 63 61 62 63 64 63 63 64 63 61 61
48 47 47 48 47 47 51 48 49 48 48 48 48 48 48 49 50 50 51 52 52 53 55 57 59 60 62 62 63 65 65 65 66 66 66 67 66 66 66 66 66 65 64 63 61 61 60 59 58 59 59 59 59 57 56 56 56 56 56 59 59 60 59 59 59 60 59 59 59 59 59 59 60 63 63 60 61 61 63 64 63 62 62 63 62
48 48 47 47 46 47 47 50 49 49 48 49 49 48 48 49 49 49 53 51 51 52 54 56 56 58 60 61 62 63 64 65 65 65 65 66 67 66 66 66 65 65 64 63 61 61 60 59 57 58 59 59 60 59 56 56 56 55 56 57 58 59 59 59 59 61 59 59 59 59 59 59 60 60 61 60 60 60 61 63 63 62 62 62 62
48 48 47 47 47 48 50 49 50 47 47 47 48 48 48 48 48 48 49 49 50 51 52 53 53 55 57 58 59 61 60 60 63 64 64 64 65 66 66 65 65 64 63 62 61 60 60 59 57 58 59 60 60 60 58 56 55 54 54 56 57 58 59 59 59 60 59 59 59 59 58 59 59 59 60 59 59 59 60 60 61 61 60 62 62
46 47 48 47 47 47 47 46 47 46 47 47 47 47 47 48 47 47 48 48 49 52 51 52 52 54 54 56 57 59 61 61 61 61 60 61 62 65 65 65 65 64 63 61 60 59 59 59 58 57 58 59 60 60 58 57 56 55 56 56 56 57 57 59 59 59 59 59 59 60 59 58 58 59 59 59 59 59 59 59 61 61 60 60 62
46 46 46 46 46 46 49 46 46 46 48 47 47 47 47 47 46 46 47 48 49 51 51 51 51 52 53 53 54 57 58 60 61 61 60 62 64 65 65 65 65 63 62 61 60 59 59 59 59 59 58 58 59 60 58 57 55 55 54 55 55 56 57 59 58 58 58 58 59 59 59 59 58 58 58 59 59 59 59 59 59 60 60 60 60
46 46 46 46 47 47 46 45 45 45 46 46 46 47 47 47 47 47 48 48 49 49 50 50 51 53 53 53 53 54 56 58 60 61 62 64 64 65 65 64 64 64 63 62 60 61 59 59 59 59 59 58 58 59 58 56 54 53 52 53 53 55 57 58 58 58 58 58 58 58 58 58 58 58 58 58 59 58 58 59 59 59 60 60 60
45 46 46 46 46 46 45 47 45 46 46 48 48 48 47 48 48 48 48 49 50 51 51 52 52 52 52 52 53 53 54 55 58 61 61 62 63 64 65 65 64 64 63 62 60 60 60 59 59 58 59 58 57 59 58 57 55 53 54 52 52 51 53 56 57 58 58 58 58 58 57 57 57 57 58 58 58 58 58 58 58 59 60 60 60
46 45 45 45 45 48 45 45 45 46 46 48 52 49 50 51 50 50 50 50 50 53 52 52 52 52 52 52 53 53 54 55 57 59 62 62 63 63 64 65 65 64 64 62 61 60 60 59 59 59 59 58 58 58 58 57 56 53 51 51 51 51 49 51 54 56 58 58 58 58 57 56 56 56 57 57 57 58 58 58 58 59 60 60 60
44 44 44 45 46 46 45 44 45 45 46 49 48 48 50 49 49 49 49 49 49 50 49 49 50 52 53 52 53 54 54 55 56 57 60 62 62 64 64 64 65 65 64 64 63 61 60 59 59 59 59 58 57 58 58 57 55 55 54 53 53 51 50 51 53 54 57 57 58 58 58 57 56 56 56 57 58 58 58 58 59 59 60 60 61
43 43 43 44 44 44 44 44 44 45 45 46 47 48 49 49 48 48 47 47 47 46 47 48 49 50 51 52 52 53 53 54 56 57 60 62 63 63 64 64 64 65 65 64 64 63 62 60 59 59 59 59 58 57 57 57 56 55 55 55 54 51 51 53 51 49 56 58 58 57 58 58 57 57 57 57 58 58 59 59 59 60 61 61 61
42 42 42 43 43 43 44 44 44 45 46 46 46 49 48 48 48 48 48 48 47 47 48 49 50 51 52 52 52 53 53 54 55 56 59 61 62 64 64 65 64 64 64 64 64 63 63 62 60 59 59 59 59 57 57 57 56 55 54 55 58 56 54 54 52 53 52 55 57 58 58 57 58 57 57 57 58 60 61 60 60 59 61 62 61
42 41 42 42 43 43 43 43 44 48 46 46 46 47 48 47 47 47 49 48 48 48 48 49 51 53 53 52 52 53 53 54 54 55 55 57 59 61 64 65 65 64 64 64 64 64 64 64 63 61 59 59 60 57 57 57 55 55 55 55 56 57 54 54 54 52 52 51 53 56 58 58 59 59 59 58 58 60 61 61 60 61 61 60 59
41 42 43 42 42 42 44 43 43 43 44 44 47 46 48 49 49 48 48 48 48 48 49 50 50 51 52 52 52 52 53 54 54 55 55 56 58 59 61 63 65 65 65 64 64 64 63 63 62 62 62 60 60 59 58 57 56 56 54 54 54 57 55 55 54 53 53 52 52 53 54 57 58 59 59 59 59 61 62 62 61 61 60 58 59
42 43 42 40 41 42 44 44 42 42 43 44 44 45 46 48 47 47 47 46 47 47 47 48 49 50 51 51 52 52 52 53 54 54 55 55 56 58 60 61 63 64 65 65 64 64 63 63 63 62 62 61 60 60 58 58 57 57 55 55 54 55 56 55 55 54 55 54 51 52 54 55 54 57 59 59 60 61 62 62 62 60 58 57 59
40 40 40 40 40 40 40 40 41 42 43 44 44 45 45 46 46 46 46 46 46 46 46 46 47 48 49 49 50 51 52 52 53 54 55 55 56 57 59 60 62 63 64 64 64 64 64 64 63 62 62 61 62 60 58 58 57 57 55 54 54 54 54 54 55 54 55 55 54 54 54 54 55 55 58 59 60 61 61 62 61 59 57 57 58